Location: Saluda
(35.2377°N, 82.3468°W)
Time: 03:18:58
(UTC+00:00)

Vanguard 2 Rocket - Pass Details

Date: 05 October 2022
Orbit: 555 x 3321 km, 32.9° (Epoch: 05 December)

Event Time Altitude Azimuth Distance (km) Brightness Sun altitude
Rises 03:55:26 0° 248° (WSW) 7,068 11.6 -54.0°
Reaches altitude 10° 04:00:37 10° 246° (WSW) 5,796 11.0 -54.6°
Enters shadow 04:06:08 24° 243° (WSW) 4,382 10.2 -55.3°
Maximum altitude 04:17:00 70° 167° (SSE) 2,125 - -56.4°
Drops below altitude 10° 04:26:14 10° 86° (E) 3,460 - -57.2°
Sets 04:28:34 0° 84° (E) 4,159 - -57.4°
